Regional Weather Roundup
Issued by NWS

Home | Current Version | Previous Version | Graphics & Text | Print | Product List | Glossary On
Versions: 1 2 3 4 5 6 7 8 9 10 11 12 13 14 15 16 17 18 19 20 21 22 23 24 25 26 27 28 29 30 31 32 33 34 35 36 37 38 39 40 41 42 43 44 45 46 47 48 49 50
000
ASUS43 KMPX 220001
RWRMN
WEATHER ROUNDUP FOR MINNESOTA
NATIONAL WEATHER SERVICE TWIN CITIES/CHANHASSEN MN
700 PM CDT TUE OCT 21 2014


NOTE: "FAIR" INDICATES FEW OR NO CLOUDS BELOW 12,000 FEET WITH NO
SIGNIFICANT WEATHER AND/OR OBSTRUCTIONS TO VISIBILITY. N/A MEANS
CURRENT SKY AND/OR WEATHER CONDITIONS ARE NOT AVAILABLE.

MNZ060>063-068>070-220100-
   Twin Cities Metro

CITY           SKY/WX    TMP DP  RH WIND       PRES   REMARKS
TWIN CITIES    CLEAR     52  39  61 SE12      30.15R
6HR MIN TEMP:  52; 6HR MAX TEMP:  58;

ST PAUL        CLEAR     52  39  61 SE9       30.17R
CRYSTAL        CLEAR     54  39  57 SE8       30.14R
BLAINE         CLEAR     54  39  58 SE8       30.14S
LAKEVILLE      CLEAR     48  39  71 SE5       30.15R
EDEN PRAIRIE   CLEAR     54  40  59 E10       30.13R
6HR MIN TEMP:  54; 6HR MAX TEMP:  59;

SOUTH ST PAUL  CLEAR     53  38  58 SE3       30.16R
LAKE ELMO      FAIR      50  39  66 SE5       30.17R
$$
MNZ001>005-007-008-013>017-022>024-027-028-220100-
   Northwest Minnesota

CITY           SKY/WX    TMP DP  RH WIND       PRES   REMARKS
BEMIDJI        CLEAR     50  37  62 SE14G20   30.02S
HALLOCK        CLEAR     59  39  47 SE18      29.85S
ROSEAU         CLEAR     54  39  58 SE18G24   29.93S
WARROAD        CLEAR     52  39  62 SE15G23   29.96S
THIEF RVR FALL CLEAR     55  39  54 SE15      29.92S
CROOKSTON      CLEAR     57  41  54 S23       29.90S
FOSSTON        CLEAR     54  37  54 SE14G21   29.96S
DETROIT LAKES  CLEAR     54  41  62 SE17G25   29.99S
MOORHEAD       CLEAR     61  43  51 SE18G24   29.92S
PARK RAPIDS    CLEAR     51  38  60 SE13      30.04S
MAHNOMEN       FAIR      55  39  54 SE15G24   29.95S
$$
MNZ006-009>011-018-025>026-220100-
   North Central Minnesota

CITY           SKY/WX    TMP DP  RH WIND       PRES   REMARKS
BAUDETTE       CLEAR     49  36  61 SE10G18   30.00F
FLAG ISLAND    CLEAR     50  39  66 SE16      29.96S
INTL FALLS     CLEAR     43  34  70 SE10      30.09R
6HR MIN TEMP:  43; 6HR MAX TEMP:  50;

WASKISH        CLEAR     48  37  66 E12G18    30.02F
BIG FORK       CLEAR     46  36  66 SE9G16    30.10R
LONGVILLE      CLEAR     48  37  66 SE7       30.08S
GRAND RAPIDS   CLEAR     45  34  65 SE8       30.11S
CRANE LAKE     CLEAR     39  34  81 SE5       30.16S
ORR            CLEAR     39  32  75 SE8       30.11S
COOK           CLEAR     39  34  81 SE6       30.15S
WALKER         FAIR      51  37  59 SE10G16   30.05S
$$
MNZ012-019>021-037-220100-
   Northeast Minnesota

CITY           SKY/WX    TMP DP  RH WIND       PRES   REMARKS
DULUTH         CLEAR     40  35  83 E12       30.17S
6HR MIN TEMP:  40; 6HR MAX TEMP:  47;

ELY            CLEAR     36  32  87 SE7       30.18R
HIBBING        CLEAR     40  34  79 SE9       30.15S
EVELETH        CLEAR     37  32  81 E5        30.17S
DULUTH HARBOR  CLEAR     46  41  81 NE22      30.19S
TWO HARBORS    CLEAR     43  28  56 E8        30.19S
SILVER BAY     PTCLDY    41  36  81 NE7       30.20S
GRAND MARAIS     N/A     42  35  76 E10       30.26S
G MARAIS ARPRT CLOUDY    34  28  80 E6        30.22F WCI  29
$$
MNZ029>031-032-039>041-046>048-054>057-064-220100-
   West Central Minnesota

CITY           SKY/WX    TMP DP  RH WIND       PRES   REMARKS
FERGUS FALLS   CLEAR     57  37  47 SE18G24   29.98S
WHEATON        CLEAR     57  39  51 SE18      29.96S
MORRIS         CLEAR     59  41  51 SE15      29.99R
ALEXANDRIA     CLEAR     54  41  61 SE16G23   30.05R
ELBOW LAKE     FAIR      56  41  56 SE16G22   29.99S
WADENA         CLEAR     52  37  58 SE14      30.04S
GLENWOOD       CLEAR     54  43  66 E12G17    30.05S
APPLETON       CLEAR     63  39  42 SE13      29.99R
BENSON         CLEAR     59  43  55 SE16G23   30.01S
ORTONVILLE     CLEAR     61  39  44 SE13      29.96R
MADISON        CLEAR     64  43  45 SE14      29.98R
WILLMAR        FAIR      57  39  51 SE15      30.06S
$$
MNZ033>034-036-042>043-049>051-058-059-220100-
   Central Minnesota

CITY           SKY/WX    TMP DP  RH WIND       PRES   REMARKS
ST CLOUD       CLEAR     55  39  54 SE7       30.11S
6HR MIN TEMP:  55; 6HR MAX TEMP:  60;

SAUK CENTRE    FAIR      52  40  65 E10       30.07S
PAYNESVILLE    CLEAR     51  40  64 E8        30.08R
AITKIN         CLEAR     52  37  58 SE6       30.10S
PINE RIVER     CLEAR     50  39  66 SE9       30.11S
BRAINERD       CLEAR     49  38  65 SE8       30.10S
STAPLES        CLEAR     52  37  58 SE9       30.06S
LONG PRAIRIE   FAIR      50  37  62 E8        30.07S
LITTLE FALLS   CLEAR     50  37  62 E6        30.10S
LITCHFIELD     CLEAR     54  43  66 SE9       30.09S
BUFFALO        CLEAR     51  40  65 E7        30.13S
MAPLE LAKE     CLEAR     54  43  66 E7        30.12S
$$
MNZ037-044-045-052-053-220100-
   East Central Minnesota

CITY           SKY/WX    TMP DP  RH WIND       PRES   REMARKS
PRINCETON      CLEAR     52  39  62 E7        30.14R
MORA           CLEAR     46  36  66 SE3       30.17R
CAMBRIDGE      CLEAR     52  39  62 CALM      30.13S
RUSH CITY      MOCLDY    47  37  66 SE3       30.16R
MOOSE LAKE     CLEAR     45  36  70 E6        30.15R
HINCKLEY       FAIR      50  36  57 SE3       30.16R
CLOQUET        CLEAR     41  36  81 E9        30.17S
MCGREGOR       CLEAR     46  36  66 SE8       30.13S
$$
MNZ071>073-080-081-089-090-097-098-220100-
   Southwest Minnesota

CITY           SKY/WX    TMP DP  RH WIND       PRES   REMARKS
MONTEVIDEO     CLEAR     61  41  48 S12       30.02R
GRANITE FALLS  CLEAR     62  40  45 E15       30.03R
CANBY          CLEAR     64  42  45 SE13      29.99R
MARSHALL       CLEAR     63  39  42 SE14      30.00R
REDWOOD FALLS  CLEAR     60  40  47 SE12      30.04S
OLIVIA         CLEAR     59  41  51 SE13      30.05R
PIPESTONE      CLEAR     64  41  42 SE12      30.00R
WINDOM         CLEAR     57  41  54 SE9       30.06S
WORTHINGTON    CLEAR     57  39  51 SE8       30.05R
JACKSON        CLEAR     59  39  47 SE9       30.07F
TRACY          CLEAR     62  42  48 SE13      30.02S
SLAYTON        CLEAR     59  40  48 SE12      30.04R
$$
MNZ065>067-074>077-082>085-091>093-220100-
   South Central Minnesota

CITY           SKY/WX    TMP DP  RH WIND       PRES   REMARKS
MANKATO        CLEAR     54  37  54 SE13      30.11S
NEW ULM        CLEAR     57  41  54 SE12      30.08S
ST JAMES       CLEAR     57  39  51 E10       30.09S
FAIRMONT       CLEAR     57  37  47 SE9       30.09S
GLENCOE        CLEAR     55  43  62 E9        30.10S
FARIBAULT      CLEAR     54  41  62 E7        30.15R
OWATONNA       CLEAR     52  39  62 SE5       30.15R
WASECA         CLEAR     50  36  57 E7        30.15R
ALBERT LEA     CLEAR     54  41  62 SE8       30.14S
$$
MNZ078>079-086>088-094>096-220100-
   Southeast Minnesota

CITY           SKY/WX    TMP DP  RH WIND       PRES   REMARKS
ROCHESTER      CLEAR     45  38  76 SE8       30.18R
6HR MIN TEMP:  45; 6HR MAX TEMP:  57;

RED WING       CLEAR     52  39  62 SE7       30.17R
STANTON        CLEAR     53  39  59 SE5       30.15R
DODGE CENTER   PTCLDY    46  39  76 SE7       30.16S
WINONA         CLEAR     48  39  71 CALM      30.20R
AUSTIN         CLEAR     48  39  71 SE3       30.16R
PRESTON        CLEAR     49  38  65 SE5       30.19R
$$
ABBREVIATIONS USED IN REMARKS
   TC - TEMPERATURES IN CELSIUS
  WCI - WIND CHILL INDEX
   HX - HEAT INDEX
  VSB - VISIBILITY
$$



USA.gov is the U.S. government's official web portal to all federal, state and local government web resources and services.